User: anonymous   Login
Location: Riverside
(39.1734°N, 77.8561°W)
Time: 19:45:01
(UTC+00:00)
Language:

CUTE-I - Orbit

View from above orbital plane
View from above orbital plane
View from above satellite
View from above satellite

Ground track
Ground track

The orbit data is extracted from the following two-line orbital elements,

1 27844U 03031E   19142.49620300  .00000028  00000-0  32341-4 0  9990
2 27844  98.6844 151.1159 0011060 107.9688 252.2696 14.22177058824425
Epoch (UTC): 22 May 2019 11:54:31
Eccentricity: 0.0011060
inclination: 98.6844°
perigee height: 810 km
apogee height: 826 km
right ascension of ascending node: 151.1159°
argument of perigee: 107.9688°
revolutions per day: 14.22177058
mean anomaly at epoch: 252.2696°
orbit number at epoch: 82442

The dashed part of the orbit path shows where the satellite is in the earth's shadow,  

DLR